Regional Weather Roundup
Issued by NWS

Home | Current Version | Previous Version | Text Only | Print | Product List | Glossary Off
Versions: 1 2 3 4 5 6 7 8 9 10 11 12 13 14 15 16 17 18 19 20 21 22 23 24 25 26 27 28 29 30 31 32 33 34 35 36 37 38 39 40 41 42 43 44 45 46 47 48 49 50

000
ASUS45 KBOI 051510
RWRID
WEATHER ROUNDUP FOR IDAHO
NATIONAL WEATHER SERVICE BOISE ID
800 AM MST THU MAR 05 2015

NOTE: "FAIR" INDICATES FEW OR NO CLOUDS BELOW 12000 FEET
WITH NO SIGNIFICANT WEATHER AND/OR OBSTRUCTIONS TO VISIBILITY

IDZ012-014-051600-
SOUTHWEST IDAHO


CITY           SKY/WX    TMP DP  RH WIND       PRES   REMARKS
BOISE          PTCLDY    28  16  60 E3        30.38R
CALDWELL       PTCLDY    21  10  63 CALM      30.42R
MOUNTAIN HOME  PTCLDY    19  11  70 E7        30.39R WCI  10
$$

IDZ016-017-051600-
SOUTHCENTRAL IDAHO


CITY           SKY/WX    TMP DP  RH WIND       PRES   REMARKS
JEROME         MOCLDY    25  14  63 NE7       30.38R WCI  17
TWIN FALLS     PTCLDY    29  14  53 S9        30.36R WCI  20
$$

IDZ019>023-051600-
SOUTHEAST IDAHO


CITY           SKY/WX    TMP DP  RH WIND       PRES   REMARKS
IDAHO FALLS    MOSUNNY   19  14  81 CALM      30.39R
POCATELLO      CLEAR     26  19  74 N3        30.38R
REXBURG        MOSUNNY   12   7  80 E5        30.38R WCI   4
$$

IDZ006-010-011-018-031-032-051600-
CENTRAL IDAHO MOUNTAINS


CITY           SKY/WX    TMP DP  RH WIND       PRES   REMARKS
MCCALL         PTCLDY    15   8  73 CALM      30.33R
HAILEY         PTCLDY    19  10  68 W9        30.35R WCI   9
STANLEY          N/A      3  -3  76 E3        30.36R
SALMON         PTCLDY    16  10  79 CALM      30.38R
CHALLIS        PTCLDY    19  11  70 CALM      30.34R
$$

IDZ002-004-006-007-026-051600-
NORTHERN IDAHO


CITY           SKY/WX    TMP DP  RH WIND       PRES   REMARKS
LEWISTON       MOCLDY    31  20  63 E3        30.33S
LOWELL           N/A     25  19  78 NW7       30.46R WCI  17
COEUR D`ALENE  CLEAR     23  16  74 CALM      30.29S
MULLAN PASS    PTCLDY    24   2  38 SW7       30.18R WCI  16
$$



USA.gov is the U.S. government's official web portal to all federal, state and local government web resources and services.